Change the Weather History Date:

Saturday, October 27, 2012

  Actual Average Record
Temperature  
Mean Temperature 49 °F 64 °F  
Max Temperature 59 °F 75 °F 90 °F (1938)
Min Temperature 38 °F 53 °F 29 °F (1957)
Degree Days  
Heating Degree Days 16 4  
Month to date heating degree days 69 50  
Since 1 July heating degree days 69 56  
Cooling Degree Days 0 3  
Month to date cooling degree days 164 135  
Year to date cooling degree days 3281 2712  
Moisture  
Dew Point 29 °F    
Average Humidity 50    
Maximum Humidity 76    
Minimum Humidity 24    
Precipitation  
Precipitation 0.00 in 0.15 in 3.81 in (1996)
Month to date precipitation 1.02 3.65  
Year to date precipitation 29.26 30.31  
Snow  
Snow 0.00 in 0.00 in 0.00 in ()
Month to date snowfall 0.0 0.0  
Since 1 July snowfall 0.0 0.0  
Since 1 September snowfall 0.0 0.0  
Snow Depth 0.00 in    
Sea Level Pressure  
Sea Level Pressure 30.25 in    
Wind  
Wind Speed 9 mph (North)    
Max Wind Speed 20 mph    
Max Gust Speed 25 mph    
Visibility 10 miles    
Events      
T = Trace of Precipitation, MM = Missing Value Source: NWS Daily Summary

Daily Weather History Graph

Daily Weather History Graph

Search for Another Location

Airport or City:

Trip Planner

Search our weather history database for the weather conditions in past years. The results will help you decide how hot, cold, wet, or windy it might be!

Date:

Astronomy

Oct. 27, 2012 Rise Set
Actual Time 7:42 AM CDT 6:41 PM CDT
Civil Twilight 7:16 AM CDT 7:06 PM CDT
Nautical Twilight 6:47 AM CDT 7:35 PM CDT
Astronomical Twilight 6:19 AM CDT 8:04 PM CDT
Moon 5:24 PM CDT (10/27) 5:43 AM CDT (10/27)
Length of Visible Light 11h 49m
Length of Day
10h 58m
Waxing Gibbous, 96% of the Moon is Illuminated
Oct 27
Waxing Gibbous
Oct 29
Full
Nov 6
Last Quarter
Nov 13
New
Nov 20
First Quarter

Hourly Weather History & Observations

Time (CDT) Temp. Windchill Dew Point Humidity Pressure Visibility Wind Dir Wind Speed Gust Speed Precip Events Conditions
12:53 AM 46.0 °F 39.9 °F 28.9 °F 51% 30.30 in 10.0 mi NNE 13.8 mph - N/A   Clear
1:53 AM 45.0 °F 39.3 °F 30.0 °F 56% 30.29 in 10.0 mi NNE 11.5 mph - N/A   Clear
2:53 AM 44.1 °F 38.6 °F 30.9 °F 60% 30.28 in 10.0 mi North 10.4 mph - N/A   Clear
3:53 AM 43.0 °F 37.2 °F 30.9 °F 62% 30.27 in 10.0 mi North 10.4 mph - N/A   Clear
4:53 AM 42.1 °F 36.1 °F 30.9 °F 65% 30.27 in 10.0 mi North 10.4 mph - N/A   Clear
5:53 AM 39.9 °F 33.9 °F 32.0 °F 73% 30.28 in 10.0 mi NNW 9.2 mph - N/A   Clear
6:53 AM 39.0 °F 31.4 °F 30.9 °F 73% 30.29 in 10.0 mi NNW 12.7 mph - N/A   Clear
7:53 AM 39.0 °F 32.8 °F 30.9 °F 73% 30.30 in 10.0 mi North 9.2 mph - N/A   Clear
8:53 AM 42.1 °F 36.1 °F 32.0 °F 67% 30.33 in 10.0 mi North 10.4 mph - N/A   Clear
9:53 AM 46.0 °F 39.9 °F 32.0 °F 58% 30.34 in 10.0 mi NNE 13.8 mph - N/A   Clear
10:53 AM 48.0 °F - 32.0 °F 54% 30.33 in 10.0 mi North 10.4 mph - N/A   Clear
11:53 AM 51.1 °F - 32.0 °F 48% 30.32 in 10.0 mi NNE 5.8 mph - N/A   Clear
12:53 PM 52.0 °F - 30.9 °F 45% 30.28 in 10.0 mi North 4.6 mph 16.1 mph N/A   Clear
1:53 PM 55.9 °F - 30.0 °F 37% 30.23 in 10.0 mi NNE 10.4 mph - N/A   Clear
2:53 PM 57.0 °F - 27.0 °F 32% 30.19 in 10.0 mi North 11.5 mph - N/A   Partly Cloudy
3:53 PM 57.9 °F - 27.0 °F 31% 30.17 in 10.0 mi North 8.1 mph - N/A   Partly Cloudy
4:53 PM 57.2 °F - 26.6 °F 31% 30.17 in 10.0 mi North 11.5 mph - N/A   Partly Cloudy
5:53 PM 57.0 °F - 21.9 °F 26% 30.16 in 10.0 mi North 9.2 mph - N/A   Partly Cloudy
6:53 PM 52.0 °F - 23.0 °F 32% 30.17 in 10.0 mi North 8.1 mph - N/A   Partly Cloudy
7:53 PM 50.0 °F - 24.1 °F 36% 30.19 in 10.0 mi NNE 3.5 mph - N/A   Partly Cloudy
8:53 PM 48.0 °F - 25.0 °F 41% 30.20 in 10.0 mi NNE 4.6 mph - N/A   Clear
9:53 PM 48.9 °F - 26.1 °F 41% 30.20 in 10.0 mi North 5.8 mph - N/A   Clear
10:53 PM 48.2 °F - 28.4 °F 46% 30.22 in 10.0 mi NNW 5.8 mph - N/A   Clear
11:53 PM 45.0 °F 41.2 °F 30.9 °F 58% 30.23 in 10.0 mi NNW 6.9 mph - N/A   Clear